FW9082 Weather Reports


time (UTC)temp
C
wind
direction
speed
KPH
gust
KPH
rain 1hr
cm
rain 24hr
cm
rain mn
cm
humidity
%
barometer
mb
20260504081534 6 0 0.0 0.0 0.00 0.00 0.00 86 1015.6
20260504044533 7 0 0.0 1.6 0.00 0.00 0.00 73 1015.7
20260504043032 7 0 0.0 0.0 0.00 0.00 0.00 74 1015.5
20260504041532 7 0 0.0 0.0 0.00 0.00 0.00 73 1015.4
20260504040033 7 0 0.0 1.6 0.00 0.00 0.00 74 1015.3
20260504034533 7 0 0.0 0.0 0.00 0.00 0.00 73 1015.2
20260504033038 6 0 0.0 0.0 0.00 0.00 0.00 74 1014.9
20260504031533 6 0 0.0 0.0 0.00 0.00 0.00 71 1015.0
20260504030032 7 0 0.0 0.0 0.00 0.00 0.00 70 1014.8
20260504024532 7 0 0.0 0.0 0.00 0.00 0.00 70 1014.8
20260504023031 7 0 0.0 0.0 0.00 0.00 0.00 68 1014.9
20260504021534 7 0 0.0 1.6 0.00 0.00 0.00 70 1014.9
20260504020032 7 0 0.0 0.0 0.00 0.00 0.00 67 1014.9
20260504014545 7 0 0.0 0.0 0.00 0.00 0.00 66 1014.9
20260504013034 8 0 0.0 0.0 0.00 0.00 0.00 65 1014.8
20260504011530 8 0 0.0 0.0 0.00 0.00 0.00 63 1014.6
20260504010028 8 0 0.0 0.0 0.00 0.00 0.00 62 1014.5
20260504004533 9 0 0.0 0.0 0.00 0.00 0.00 60 1014.4
20260504003032 10 0 0.0 0.0 0.00 0.00 0.00 56 1014.3
20260504001537 11 0 0.0 0.0 0.00 0.00 0.00 52 1014.2
20260504000039 12 0 0.0 0.0 0.00 0.00 0.00 50 1014.0
20260503234532 12 0 0.0 0.0 0.00 0.00 0.00 50 1013.8
20260503233032 13 0 0.0 0.0 0.00 0.00 0.00 46 1013.7
20260503231541 14 252 0.0 3.2 0.00 0.00 0.00 43 1013.6
20260503230033 15 0 0.0 4.8 0.00 0.00 0.00 41 1013.7
20260503224536 15 13 1.6 6.4 0.00 0.00 0.00 38 1013.6
20260503223031 16 219 1.6 11.3 0.00 0.00 0.00 38 1013.6
20260503221537 16 348 1.6 12.9 0.00 0.00 0.00 37 1013.6
20260503220032 16 191 1.6 16.1 0.00 0.00 0.00 35 1013.6
20260503214533 16 111 1.6 17.7 0.00 0.00 0.00 38 1013.6
20260503213034 16 292 3.2 9.7 0.00 0.00 0.00 36 1013.5
20260503211532 16 31 3.2 12.9 0.00 0.00 0.00 40 1013.5
20260503210044 16 248 4.8 14.5 0.00 0.00 0.00 36 1013.5
20260503204532 16 243 3.2 12.9 0.00 0.00 0.00 38 1013.5
20260503203031 16 66 4.8 17.7 0.00 0.00 0.00 38 1013.7
20260503201534 16 248 3.2 11.3 0.00 0.00 0.00 39 1013.9
20260503200040 16 11 4.8 14.5 0.00 0.00 0.00 37 1014.0
20260503194534 16 291 3.2 11.3 0.00 0.00 0.00 39 1014.1
20260503193032 16 211 3.2 16.1 0.00 0.00 0.00 37 1014.2
20260503191531 15 147 8.0 22.5 0.00 0.00 0.00 37 1014.3
20260503190037 15 60 4.8 20.9 0.00 0.00 0.00 43 1014.5
20260503184531 15 50 4.8 12.9 0.00 0.00 0.00 42 1014.7
20260503183034 15 44 3.2 22.5 0.00 0.00 0.00 43 1014.7
20260503181534 15 350 4.8 14.5 0.00 0.00 0.00 43 1014.9
20260503180031 15 27 1.6 17.7 0.00 0.00 0.00 42 1015.0
20260503174531 14 238 6.4 20.9 0.00 0.00 0.00 42 1015.1
20260503173036 13 295 4.8 19.3 0.00 0.00 0.00 42 1015.3
20260503171535 14 51 4.8 14.5 0.00 0.00 0.00 46 1015.2